Date,TemperatureHighF,TemperatureAvgF,TemperatureLowF,DewpointHighF,DewpointAvgF,DewpointLowF,HumidityHigh,HumidityAvg,HumidityLow,PressureMaxIn,PressureMinIn,WindSpeedMaxMPH,WindSpeedAvgMPH,GustSpeedMaxMPH,PrecipitationSumIn
2013-1-1,35,29,16,27,16,3,81,59,42,29.91,29.67,11,5,24,0.00
2013-1-2,27,16,4,17,5,-6,84,64,49,30.12,29.88,7,3,18,0.00
2013-1-3,23,10,-3,5,-2,-8,81,60,30,30.13,29.96,6,2,13,0.00
2013-1-4,38,23,2,24,14,-2,90,71,54,29.96,29.78,6,2,17,0.00
2013-1-5,40,32,20,25,20,15,82,63,42,30.22,29.79,9,3,24,0.00
2013-1-6,20,20,20,15,15,15,82,82,82,30.21,30.21,0,0,1,0.00
2013-1-7,20,20,20,15,15,15,82,82,82,30.21,30.21,0,0,1,0.00
2013-1-8,44,26,9,28,19,6,90,76,47,30.35,30.21,5,1,14,0.01
2013-1-9,44,30,15,34,24,12,91,80,55,30.40,29.96,6,1,18,0.01
2013-1-10,46,40,27,29,25,22,83,56,44,30.53,30.00,11,5,25,0.00
2013-1-11,38,30,20,32,25,17,97,83,64,30.52,30.19,1,0,4,0.17
2013-1-12,40,36,33,38,34,31,94,93,92,30.20,30.09,1,0,3,0.20
2013-1-13,47,40,35,46,39,33,95,95,94,30.13,29.94,3,0,15,0.01
2013-1-14,59,45,36,50,38,27,95,78,43,30.24,29.83,8,2,20,0.00
2013-1-15,42,34,27,29,26,24,89,72,51,30.31,30.22,4,1,10,0.00
2013-1-16,33,31,28,31,28,25,93,90,85,30.24,29.79,1,0,4,0.02
2013-1-17,41,30,22,35,23,11,94,77,50,30.09,29.80,6,2,15,0.27
2013-1-18,28,19,12,12,2,-4,83,50,29,30.40,30.04,8,2,21,0.01
2013-1-19,44,32,18,28,20,7,87,62,44,30.34,29.83,9,2,25,0.08
2013-1-20,51,39,28,32,24,11,84,57,29,29.89,29.49,12,5,27,0.01
2013-1-21,28,23,17,19,9,2,89,55,40,30.06,29.78,10,2,23,0.00
2013-1-22,24,18,9,18,8,-1,89,66,36,30.04,29.75,9,3,23,0.00
2013-1-23,14,8,-1,1,-8,-14,73,48,28,30.12,30.03,9,3,24,0.00
2013-1-24,17,7,-6,-7,-10,-12,78,46,29,30.18,30.05,11,4,28,0.00
2013-1-25,22,14,7,6,-6,-10,59,41,27,30.29,30.04,8,3,19,0.00
2013-1-26,23,15,6,11,1,-8,89,56,29,30.16,29.99,8,3,19,0.00
2013-1-27,29,17,12,6,0,-2,70,48,28,30.45,30.16,7,3,17,0.00
2013-1-28,29,22,14,21,11,1,89,66,40,30.43,30.02,4,0,9,0.00
2013-1-29,35,29,22,30,25,19,97,86,76,30.19,30.02,3,0,7,0.08
2013-1-30,57,42,33,54,40,31,95,93,90,30.15,29.42,4,1,14,0.22
2013-1-31,57,40,30,53,27,15,93,60,43,29.56,28.92,15,8,38,0.42
2013-2-1,33,27,22,17,10,4,61,48,36,30.04,29.56,10,6,29,0.01
2013-2-2,29,23,15,11,7,4,75,50,37,30.22,30.01,6,2,13,0.00
2013-2-3,28,24,17,22,19,13,96,81,57,30.02,29.70,3,0,10,0.01
2013-2-4,30,24,15,20,9,4,89,55,37,29.91,29.70,11,5,29,0.01
2013-2-5,30,23,16,16,10,5,74,59,44,30.01,29.91,3,1,8,0.00
2013-2-6,37,28,21,26,18,5,89,67,42,30.27,29.91,7,2,18,0.01
2013-2-7,29,22,10,5,2,-1,78,45,28,30.53,30.27,4,1,12,0.01
2013-2-8,24,20,17,17,14,2,89,76,37,30.48,29.70,6,2,21,0.00
2013-2-9,20,18,13,18,14,6,90,85,74,30.17,29.64,7,5,24,0.00
2013-2-10,18,11,5,11,4,0,79,74,69,30.33,30.17,4,1,10,0.32
2013-2-11,32,23,8,30,19,3,93,86,73,30.33,29.61,2,0,5,0.32
2013-2-12,45,36,27,32,29,25,94,76,52,29.83,29.58,12,3,28,0.29
2013-2-13,43,34,23,27,24,20,88,69,45,29.85,29.72,5,2,11,0.01
2013-2-14,45,33,22,25,22,18,89,69,41,29.96,29.70,5,1,12,0.01
2013-2-15,53,35,20,32,26,17,92,74,42,29.97,29.86,8,2,24,0.00
2013-2-16,40,34,27,32,26,16,92,73,53,29.94,29.72,4,1,12,0.08
2013-2-17,28,22,16,16,8,1,84,57,41,29.72,29.38,13,7,33,0.01
2013-2-18,30,22,14,6,0,-4,56,40,23,30.11,29.65,13,8,31,0.00
2013-2-19,44,32,16,37,21,3,93,64,37,30.15,29.57,3,1,10,0.20
2013-2-20,36,32,27,34,21,12,94,64,44,29.74,29.52,11,6,26,0.20
2013-2-21,32,27,23,16,13,9,70,57,45,30.17,29.74,9,5,26,0.00
2013-2-22,41,31,17,26,20,13,89,65,39,30.39,30.19,4,1,16,0.00
2013-2-23,38,33,29,31,28,24,92,82,71,30.31,29.91,2,0,9,0.01
2013-2-24,35,33,31,33,31,29,93,92,91,29.91,29.70,2,0,8,0.26
2013-2-25,38,33,30,34,31,28,93,90,81,30.22,29.88,1,0,4,0.36
2013-2-26,42,34,29,35,30,27,94,85,66,30.33,30.17,1,0,7,0.23
2013-2-27,40,36,31,38,33,29,97,92,87,30.18,29.59,3,1,18,0.80
2013-2-28,46,37,33,37,33,31,94,86,71,29.63,29.53,3,1,7,0.17
2013-3-1,40,36,29,33,30,27,94,78,64,29.66,29.53,5,1,12,0.01
2013-3-2,43,36,28,31,27,24,86,70,59,29.66,29.59,4,2,13,0.00
2013-3-3,40,34,30,31,27,25,86,75,65,29.63,29.53,5,2,13,0.01
2013-3-4,38,33,30,29,24,21,85,70,55,29.75,29.58,9,6,24,0.01
2013-3-5,46,36,29,32,27,22,90,69,50,30.07,29.75,5,2,16,0.01
2013-3-6,37,35,32,35,32,29,93,90,82,30.13,30.06,4,2,14,0.18
2013-3-7,36,33,31,31,29,26,92,85,73,30.11,30.00,6,3,17,0.08
2013-3-8,42,34,30,31,28,24,92,82,57,30.15,29.97,4,1,14,0.19
2013-3-9,55,36,22,30,24,18,90,68,23,30.32,30.15,2,0,9,0.57
2013-3-10,47,34,19,32,26,17,92,76,54,30.40,30.28,2,0,7,0.01
2013-3-11,52,41,31,39,33,28,92,75,49,30.29,30.12,5,1,15,0.01
2013-3-12,54,47,38,51,45,35,94,92,83,30.13,29.70,3,1,12,0.42
2013-3-13,51,43,30,49,32,22,94,68,36,29.77,29.69,9,4,20,0.34
2013-3-14,36,30,22,25,17,8,87,61,43,29.83,29.69,10,5,24,0.00
2013-3-15,41,29,18,29,13,5,84,54,26,29.85,29.60,8,4,21,0.00
2013-3-16,38,32,26,27,16,10,78,52,31,29.85,29.62,6,2,16,0.00
2013-3-17,39,26,18,18,14,7,88,63,29,30.02,29.85,8,2,17,0.00
2013-3-18,38,35,30,25,12,0,81,42,20,30.35,30.24,3,1,9,0.00
2013-3-19,34,32,28,32,30,25,92,91,83,30.25,29.64,3,1,14,0.11
2013-3-20,37,31,24,30,24,20,92,78,55,29.80,29.65,9,3,22,0.51
2013-3-21,40,30,19,26,20,16,89,69,39,29.80,29.59,2,0,5,0.29
2013-3-22,40,32,24,24,21,17,90,64,42,29.70,29.61,8,3,16,0.01
2013-3-23,43,34,22,23,20,18,85,58,38,29.76,29.62,11,6,27,0.01
2013-3-24,47,39,33,30,25,21,74,57,40,29.80,29.71,9,4,20,0.00
2013-3-25,46,36,27,34,28,23,88,73,56,29.77,29.53,3,1,11,0.00
2013-3-26,52,41,31,31,26,19,82,59,28,29.77,29.56,5,1,12,0.00
2013-3-27,54,40,25,33,26,22,90,61,32,29.87,29.74,8,2,20,0.00
2013-3-28,51,42,34,37,33,30,92,72,46,30.01,29.87,4,1,10,0.02
2013-3-29,58,43,30,38,32,27,92,68,38,30.04,29.96,5,1,12,0.01
2013-3-30,58,44,31,35,26,16,91,57,21,30.08,29.98,7,2,16,0.00
2013-3-31,61,43,23,41,25,-100,90,58,21,30.11,29.75,7,2,19,0.03
2013-4-1,64,46,35,44,36,12,93,70,33,29.76,29.48,13,4,29,0.40
2013-4-2,41,34,27,18,14,11,59,44,31,29.90,29.76,12,7,30,0.01
2013-4-3,47,37,28,16,12,7,54,38,20,30.14,29.89,11,7,26,0.00
2013-4-4,57,42,26,23,17,12,72,38,18,30.28,30.01,7,4,16,0.00
2013-4-5,63,47,37,29,26,18,73,46,19,30.01,29.63,8,3,26,0.00
2013-4-6,46,37,28,26,12,4,62,39,18,30.31,29.87,9,4,26,0.00
2013-4-7,58,40,22,38,25,16,85,57,24,30.31,29.95,9,3,27,0.00
2013-4-8,66,51,36,42,37,33,93,64,29,30.08,29.93,7,1,17,0.00
2013-4-9,69,55,45,52,44,39,92,70,42,30.07,29.85,9,2,22,0.08
2013-4-10,60,52,46,52,47,42,93,85,69,30.00,29.85,2,0,6,0.57
2013-4-11,53,46,40,48,38,27,93,75,44,30.14,29.84,5,1,10,0.51
2013-4-12,40,37,35,36,33,30,93,87,68,30.19,29.80,2,1,10,0.50
2013-4-13,53,43,35,43,37,33,93,82,56,29.91,29.77,5,1,13,0.13
2013-4-14,55,46,35,41,34,28,93,67,40,30.20,29.90,9,3,20,0.01
2013-4-15,60,44,28,37,32,26,93,67,34,30.37,30.20,3,1,10,0.00
2013-4-16,70,53,37,52,42,34,88,69,42,30.38,30.04,9,3,27,0.01
2013-4-17,67,57,43,53,38,28,81,51,25,30.33,30.03,7,3,17,0.01
2013-4-18,65,50,31,43,33,27,93,58,32,30.43,30.14,5,2,20,0.00
2013-4-19,76,65,52,62,55,43,91,73,56,30.14,29.61,8,4,27,0.00
2013-4-20,69,53,44,63,41,23,92,65,35,30.19,29.59,10,5,24,0.56
2013-4-21,55,42,30,31,23,15,82,50,23,30.66,30.19,9,2,18,0.01
2013-4-22,55,41,28,34,29,22,93,68,30,30.76,30.60,3,1,19,0.00
2013-4-23,42,38,31,40,36,28,93,89,82,30.60,30.12,2,1,10,0.02
2013-4-24,77,58,41,52,44,37,93,65,24,30.15,29.75,6,2,17,0.01
2013-4-25,64,55,38,51,37,28,90,56,26,30.27,29.80,8,4,19,0.06
2013-4-26,64,47,30,39,34,28,93,64,33,30.40,30.27,2,0,10,0.03
2013-4-27,67,50,32,41,36,30,94,62,31,30.40,30.26,3,1,10,0.00
2013-4-28,73,54,34,43,36,-100,93,59,27,30.33,30.19,3,1,14,0.00
2013-4-29,71,58,41,47,38,26,85,51,30,30.26,30.16,5,2,15,0.00
2013-4-30,74,59,42,38,32,26,81,41,19,30.35,30.24,3,1,10,0.00
2013-5-1,74,54,33,41,35,30,92,56,23,30.46,30.35,3,1,10,0.00
2013-5-2,81,54,37,46,39,34,93,62,22,30.49,30.33,3,0,11,0.00
2013-5-3,59,46,38,45,40,35,89,80,58,30.50,30.38,0,0,4,0.00
2013-5-4,68,50,36,47,38,29,94,67,27,30.38,30.28,3,1,11,0.00
2013-5-5,69,49,31,44,36,29,94,66,35,30.33,30.21,3,1,9,0.00
2013-5-6,74,53,32,49,40,30,94,68,26,30.27,30.11,2,1,9,0.00
2013-5-7,81,62,39,59,48,37,94,67,27,30.16,30.05,3,1,12,0.00
2013-5-8,76,63,50,63,57,47,94,81,59,30.19,30.04,3,1,14,0.01
2013-5-9,67,60,56,62,58,52,94,92,78,30.04,29.88,1,0,7,0.44
2013-5-10,80,64,54,63,54,-100,95,78,45,29.95,29.87,3,0,9,0.16
2013-5-11,70,64,59,63,60,55,93,85,77,29.88,29.68,6,1,19,0.10
2013-5-12,71,60,45,60,50,-100,94,75,40,29.78,29.55,7,2,21,0.07
2013-5-13,58,49,39,36,32,28,80,53,36,30.02,29.78,7,3,21,0.01
2013-5-14,60,47,33,39,33,28,93,63,33,30.05,29.96,6,2,18,0.01
2013-5-15,69,49,31,52,39,29,94,72,30,30.05,29.66,4,1,18,0.02
2013-5-16,80,58,41,51,23,-100,95,54,21,29.82,29.62,10,3,30,0.01
2013-5-17,69,57,45,47,38,-100,84,57,33,30.21,29.82,5,2,17,0.00
2013-5-18,74,56,38,50,42,36,94,65,26,30.30,30.21,2,0,13,0.00
2013-5-19,72,57,48,56,51,45,93,81,53,30.34,30.20,2,0,8,0.18
2013-5-20,81,67,56,67,60,54,94,81,59,30.20,29.91,4,1,13,0.25
2013-5-21,75,60,51,69,57,48,94,89,74,30.03,29.88,2,0,10,0.10
2013-5-22,64,56,51,61,53,49,95,92,85,30.06,29.87,2,0,10,1.43
2013-5-23,76,62,53,71,60,51,95,92,82,29.93,29.78,4,1,18,0.53
2013-5-24,72,63,49,67,60,47,95,90,75,29.83,29.62,5,1,13,1.58
2013-5-25,51,47,41,49,45,37,94,93,87,29.83,29.71,5,2,18,0.56
2013-5-26,57,48,39,45,40,37,93,77,58,30.04,29.69,6,3,21,0.08
2013-5-27,70,54,36,49,41,34,95,67,32,30.17,30.06,5,1,17,0.01
2013-5-28,74,56,38,53,44,36,94,69,35,30.24,30.14,2,0,8,0.00
2013-5-29,68,61,51,64,58,48,94,91,86,30.17,29.97,0,0,5,0.37
2013-5-30,87,73,59,71,65,57,96,78,48,30.07,29.99,4,1,12,0.16
2013-5-31,94,77,60,76,66,58,95,73,41,30.08,29.90,3,1,15,0.00
2013-6-1,93,79,64,73,67,61,94,70,35,29.95,29.82,3,1,14,0.00
2013-6-2,91,79,68,75,67,-100,93,73,43,29.85,29.67,6,2,22,0.08
2013-6-3,78,70,56,70,63,49,94,81,56,29.83,29.72,4,1,18,0.27
2013-6-4,70,60,49,53,47,42,85,65,45,30.08,29.81,4,2,16,0.01
2013-6-5,75,60,45,57,48,43,94,70,37,30.18,30.07,2,0,10,0.00
2013-6-6,74,62,51,62,54,49,93,75,47,30.18,30.08,3,0,10,0.00
2013-6-7,58,55,52,55,53,50,95,93,89,30.10,29.87,1,0,7,1.09
2013-6-8,78,63,53,67,58,52,95,85,66,29.98,29.65,4,1,14,1.07
2013-6-9,78,66,53,62,57,51,95,76,49,30.15,29.98,4,1,15,0.01
2013-6-10,72,61,52,62,57,50,95,86,70,30.20,30.02,1,0,8,0.28
2013-6-11,61,58,55,58,56,53,95,93,87,30.03,29.58,1,0,7,1.00
2013-6-12,70,62,56,59,56,53,95,82,64,29.81,29.56,6,2,22,0.24
2013-6-13,68,58,49,60,55,47,95,88,70,29.80,29.71,1,0,9,0.28
2013-6-14,74,62,54,63,56,52,95,83,47,29.76,29.66,2,0,12,0.60
2013-6-15,78,64,50,58,51,45,94,68,33,29.92,29.76,3,1,13,0.03
2013-6-16,76,64,50,62,55,48,95,75,50,29.92,29.69,3,0,13,0.00
2013-6-17,85,68,55,69,60,53,95,80,48,29.89,29.75,4,1,14,0.09
2013-6-18,71,61,55,65,59,53,95,91,78,29.95,29.88,1,0,8,0.38
2013-6-19,76,64,52,60,54,45,94,75,37,30.14,29.92,3,1,10,0.03
2013-6-20,80,60,46,59,50,44,96,73,36,30.26,30.14,3,1,12,0.00
2013-6-22,84,80,74,70,66,62,74,62,53,30.18,30.07,2,1,12,0.00
2013-6-23,91,78,65,77,68,62,91,73,56,30.13,29.95,3,1,14,0.00
2013-6-24,94,80,70,75,71,67,93,76,49,29.99,29.85,3,1,11,0.08
2013-6-25,91,78,66,76,70,64,95,80,56,29.91,29.70,4,1,13,0.22
2013-6-26,79,72,66,75,69,64,95,92,80,29.83,29.71,1,0,5,0.51
2013-6-27,71,66,62,68,64,60,95,93,89,29.85,29.75,1,0,5,0.07
2013-6-28,77,66,58,73,64,56,95,93,88,29.76,29.46,3,0,8,0.74
2013-6-29,84,76,69,74,70,67,93,82,61,29.68,29.49,4,1,18,0.09
2013-6-30,86,76,65,76,70,63,93,81,64,29.91,29.69,3,1,12,0.00
2013-7-1,80,74,69,74,71,66,93,89,80,30.05,29.91,1,0,5,1.53
2013-7-2,84,72,62,77,69,59,93,90,77,30.20,30.04,2,0,9,0.14
2013-7-3,87,75,62,76,69,60,93,83,67,30.20,30.10,3,1,11,0.01
2013-7-4,92,82,71,79,74,68,93,76,58,30.18,30.05,2,1,14,0.00
2013-7-5,94,83,73,80,74,70,92,76,57,30.13,30.00,3,1,13,0.00
2013-7-6,88,80,73,77,72,67,92,79,61,30.05,29.96,4,1,14,0.00
2013-7-7,91,78,65,78,70,62,92,79,53,30.00,29.88,2,0,9,0.00
2013-7-8,85,74,67,77,69,-100,92,88,71,30.05,29.89,1,0,7,1.04
2013-7-9,71,67,65,68,65,63,92,91,88,30.09,30.03,0,0,3,1.04
2013-7-10,83,72,66,77,67,-100,92,89,81,30.06,29.77,1,0,7,0.53
2013-7-11,83,75,70,76,72,65,93,89,72,29.92,29.74,2,0,7,0.74
2013-7-12,81,70,64,70,64,61,93,80,52,30.18,29.92,1,0,10,0.01
2013-7-13,81,71,62,72,66,60,92,85,70,30.29,30.19,1,0,6,0.00
2013-7-14,91,78,68,78,73,66,93,83,58,30.28,30.18,2,0,8,0.00
2013-7-15,90,78,67,78,71,65,93,82,60,30.19,30.07,2,0,8,0.00
2013-7-16,93,79,65,78,70,63,93,77,46,30.14,30.09,3,0,11,0.00
2013-7-17,94,81,68,79,72,65,93,76,48,30.16,29.95,2,0,8,0.00
2013-7-18,93,80,72,79,74,69,92,80,56,29.99,29.91,1,0,6,0.01
2013-7-19,95,83,70,80,74,68,92,76,53,29.93,29.68,4,1,21,0.01
2013-7-20,91,80,70,79,70,-100,90,75,60,29.78,29.63,3,1,15,0.00
2013-7-21,82,72,63,73,66,60,92,82,61,29.97,29.77,1,0,8,0.00
2013-7-22,84,72,65,74,67,62,92,86,66,30.01,29.88,1,0,7,0.00
2013-7-23,78,71,68,74,69,65,93,91,86,29.88,29.52,1,0,6,0.91
2013-7-24,85,74,63,75,67,52,93,80,61,29.96,29.57,4,1,15,0.01
2013-7-25,67,62,57,60,55,50,91,81,66,30.10,29.96,2,0,9,0.03
2013-7-26,73,65,60,70,63,57,93,91,88,30.07,29.93,3,0,12,0.40
2013-7-27,84,71,57,70,64,55,93,78,49,30.03,29.96,3,0,10,0.01
2013-7-28,84,70,63,75,66,60,93,87,68,30.00,29.95,1,0,6,0.07
2013-7-29,85,73,67,72,68,65,93,85,63,30.02,29.92,3,0,21,0.01
2013-7-30,82,70,58,69,61,56,93,77,48,30.07,30.01,3,1,13,0.00
2013-7-31,82,68,56,68,61,54,93,78,49,30.12,30.01,2,0,11,0.00
2013-8-1,83,67,57,69,61,55,93,83,54,30.03,29.86,2,0,11,0.06
2013-8-2,83,71,64,72,64,59,93,80,52,29.86,29.76,3,0,15,0.66
2013-8-3,80,69,60,69,61,57,93,78,51,29.84,29.74,4,1,15,0.01
2013-8-4,79,64,54,67,58,51,93,84,56,29.88,29.76,3,0,14,0.23
2013-8-5,76,61,51,57,51,45,93,73,38,30.04,29.87,5,2,18,0.13
2013-8-6,81,61,46,64,53,44,93,77,40,30.13,30.04,1,0,6,0.00
2013-8-7,81,66,50,63,56,47,93,72,40,30.17,30.08,2,1,10,0.00
2013-8-8,83,73,64,73,66,59,91,81,72,30.10,29.98,4,1,14,0.10
2013-8-9,75,73,70,73,70,68,93,91,86,30.00,29.72,2,0,12,1.98
2013-8-10,84,71,59,71,63,55,93,78,46,30.00,29.77,5,1,17,0.01
2013-8-11,80,64,51,65,56,49,93,78,46,30.06,29.97,3,0,14,0.00
2013-8-12,82,66,54,66,59,51,93,79,44,30.01,29.89,2,0,9,0.00
2013-8-13,74,66,61,69,62,-100,93,88,80,29.91,29.67,1,0,7,0.04
2013-8-14,76,64,56,61,55,-100,92,76,56,29.93,29.65,6,2,18,0.01
2013-8-15,77,57,48,60,42,-100,93,75,49,30.09,29.93,4,1,13,0.00
2013-8-16,80,62,49,65,52,-100,93,77,50,30.17,30.09,2,0,8,0.00
2013-8-17,82,66,50,67,58,48,93,78,50,30.26,30.17,1,0,6,0.00
2013-8-18,82,66,54,71,59,-100,93,81,54,30.26,30.06,1,0,6,0.00
2013-8-19,83,65,55,71,52,-100,93,81,58,30.06,29.93,2,0,9,0.00
2013-8-20,86,70,58,72,62,-100,93,80,50,30.07,29.96,2,0,7,0.00
2013-8-21,89,72,58,73,64,55,93,79,50,30.13,30.00,2,0,9,0.00
2013-8-22,90,76,60,73,67,58,93,77,51,30.01,29.80,3,1,14,0.00
2013-8-23,83,71,59,68,61,53,90,73,43,30.12,29.80,4,1,14,0.00
2013-8-24,80,62,48,62,52,45,92,74,38,30.31,30.12,1,0,6,0.00
2013-8-25,84,64,47,64,52,-100,93,73,37,30.35,30.16,2,0,11,0.00
2013-8-26,82,71,62,72,65,57,91,82,65,30.16,29.85,3,1,10,0.06
2013-8-27,87,74,67,75,68,64,92,83,54,29.86,29.82,0,0,7,0.01
2013-8-28,88,80,68,75,70,64,88,71,57,29.97,29.83,1,0,8,0.00
2013-8-29,68,65,62,65,62,59,92,90,86,30.07,29.94,1,0,8,0.04
2013-8-30,85,70,58,71,64,55,92,81,58,30.02,29.79,2,0,8,0.01
2013-8-31,82,73,66,77,70,63,93,90,81,29.81,29.75,1,0,7,0.23
2013-9-1,86,76,70,76,70,-100,93,85,68,29.86,29.76,3,0,8,0.01
2013-9-2,80,74,71,76,72,68,92,91,85,29.84,29.69,1,0,6,0.88
2013-9-3,83,71,60,75,67,56,93,88,71,29.79,29.68,2,0,10,0.03
2013-9-4,82,67,54,66,59,52,93,77,47,29.89,29.78,4,1,12,0.01
2013-9-5,72,61,47,60,53,43,95,78,48,30.14,29.83,3,1,11,0.01
2013-9-6,72,54,39,53,45,37,93,75,40,30.24,30.07,2,0,9,0.01
2013-9-7,82,61,44,60,51,42,93,74,41,30.07,29.87,3,0,10,0.00
2013-9-8,74,62,47,64,49,-100,85,64,49,30.08,29.74,6,2,21,0.01
2013-9-9,72,54,38,54,46,36,92,75,40,30.23,30.08,2,0,12,0.01
2013-9-10,76,66,52,72,62,49,92,89,82,30.13,30.01,2,0,10,0.13
2013-9-11,95,80,66,80,72,64,93,79,54,30.04,29.91,3,1,11,0.04
2013-9-12,87,73,67,78,69,65,93,89,74,29.93,29.64,2,0,11,0.27
2013-9-13,78,67,57,72,64,54,93,88,75,29.75,29.56,3,1,15,0.07
2013-9-14,67,59,50,59,54,47,91,83,69,30.04,29.75,3,1,11,0.04
2013-9-15,70,53,43,59,47,-100,93,84,55,30.14,30.03,1,0,7,0.01
2013-9-16,69,56,47,59,51,39,93,83,70,30.25,30.00,3,1,14,0.01
2013-9-17,66,48,35,51,41,32,92,79,47,30.42,30.25,2,0,8,0.00
2013-9-18,49,39,36,43,37,34,93,91,90,30.32,30.13,0,0,1,0.00
2013-9-19,80,58,41,62,50,39,93,78,37,30.13,30.01,1,0,7,0.01
2013-9-20,81,61,44,66,54,42,93,79,47,30.09,29.98,1,0,5,0.01
2013-9-21,76,63,48,64,57,45,93,82,63,30.01,29.70,4,1,18,0.00
2013-9-22,74,64,52,67,56,-100,92,79,55,29.83,29.58,4,1,15,0.00
2013-9-23,65,51,43,50,44,39,91,76,54,29.99,29.83,4,1,16,0.00
2013-9-24,68,50,38,51,42,35,97,76,47,29.99,29.81,6,1,17,0.14
2013-9-25,71,54,39,57,47,37,93,80,51,29.98,29.87,2,0,8,0.14
2013-9-26,70,58,50,55,51,47,91,79,52,30.13,29.98,1,0,9,0.00
2013-9-27,67,58,48,58,53,45,91,84,66,30.26,30.13,1,0,7,0.00
2013-9-28,48,44,42,45,42,40,92,91,91,30.31,30.25,0,0,0,0.00
2013-9-29,42,41,42,40,37,-100,92,90,92,30.31,30.31,0,0,0,0.00
2013-9-30,42,42,42,40,40,40,92,92,92,30.31,30.31,0,0,0,0.00
2013-10-1,42,42,42,40,40,40,92,92,92,30.31,30.31,0,0,0,0.00
2013-10-2,72,64,57,61,58,54,90,83,67,29.93,29.84,0,0,3,0.00
2013-10-3,80,61,46,59,52,44,93,76,40,30.08,29.93,2,0,8,0.00
2013-10-4,62,56,47,59,53,45,93,91,89,30.09,30.03,0,0,3,0.09
2013-10-5,69,61,55,60,57,53,93,86,68,30.12,30.04,1,0,4,0.04
2013-10-6,59,55,52,56,52,49,93,91,89,30.24,30.11,0,0,5,0.26
2013-10-7,77,63,55,71,60,53,93,90,75,30.14,29.77,6,1,23,0.13
2013-10-8,68,54,40,56,46,36,93,76,41,30.37,29.89,5,1,17,0.07
2013-10-9,66,47,33,50,41,31,93,80,49,30.49,30.37,2,0,7,0.00
2013-10-10,63,49,37,53,44,35,93,85,68,30.37,30.19,1,0,3,0.00
2013-10-11,74,55,43,53,47,39,93,76,29,30.19,30.10,1,0,7,0.00
2013-10-12,57,51,42,54,48,40,93,91,89,30.39,30.16,1,0,8,0.00
2013-10-13,62,49,38,52,43,-100,97,85,68,30.45,30.38,1,0,8,0.00
2013-10-14,68,49,36,50,42,34,93,78,40,30.40,30.22,2,0,7,0.00
2013-10-15,69,56,51,56,51,47,91,83,62,30.26,30.17,2,0,6,0.00
2013-10-16,62,54,47,54,50,44,93,86,67,30.18,29.91,1,0,4,0.00
2013-10-17,78,56,45,62,49,43,93,78,43,29.91,29.70,5,1,13,0.00
2013-10-18,70,60,45,60,51,39,92,74,44,29.89,29.59,9,3,23,0.02
2013-10-19,70,52,35,48,41,33,97,69,38,29.96,29.74,3,1,9,0.00
2013-10-20,65,51,36,48,39,-100,90,67,38,30.01,29.68,8,2,19,0.00
2013-10-21,70,48,31,46,38,28,92,72,39,30.11,29.98,5,1,12,0.00
2013-10-22,62,51,40,53,45,36,92,80,65,29.98,29.70,4,1,12,0.00
2013-10-23,53,43,31,40,35,28,92,76,51,29.79,29.58,2,0,6,0.00
2013-10-24,54,44,31,38,32,28,91,66,40,29.88,29.64,10,2,20,0.00
2013-10-25,52,42,28,38,29,23,92,63,43,30.12,29.87,7,2,15,0.00
2013-10-26,55,41,25,37,28,22,92,64,34,30.13,29.85,7,2,24,0.00
2013-10-27,56,47,33,38,32,-100,85,59,42,30.03,29.78,7,2,17,0.00
2013-10-28,60,41,28,38,29,-100,92,67,42,30.34,30.03,7,2,21,0.00
2013-10-29,50,33,21,27,22,18,90,67,31,30.45,30.34,3,0,9,0.00
2013-10-30,52,36,25,39,30,21,89,79,57,30.36,30.19,2,0,7,0.01
2013-10-31,60,41,27,58,39,24,92,90,84,30.23,29.79,4,0,19,0.15
2013-11-1,69,64,52,63,57,47,92,81,65,29.78,29.42,9,4,26,0.13
2013-11-2,67,52,38,49,44,36,97,77,41,29.71,29.58,3,0,9,0.02
2013-11-3,47,40,27,44,26,-100,91,62,33,30.40,29.71,5,2,16,0.02
2013-11-4,44,29,19,23,18,15,89,67,33,30.70,30.40,3,0,10,0.01
2013-11-5,51,34,20,31,25,17,90,74,44,30.71,30.49,3,0,9,0.00
2013-11-6,63,48,33,48,40,30,89,74,50,30.50,30.00,5,1,17,0.00
2013-11-7,64,53,37,57,48,32,89,82,73,30.01,29.67,6,2,19,0.06
2013-11-8,48,38,26,35,28,22,89,67,49,30.05,29.80,9,3,20,0.01
2013-11-9,44,37,26,30,23,-100,84,60,41,30.20,30.00,7,2,16,0.00
2013-11-10,52,44,37,45,36,29,92,75,60,30.00,29.70,8,2,15,0.04
2013-11-11,52,45,38,33,28,24,68,54,35,30.07,29.82,8,3,16,0.01
2013-11-12,47,34,24,36,23,16,85,65,51,30.16,29.86,6,2,20,0.03
2013-11-13,36,26,18,18,15,10,84,63,38,30.29,30.13,7,2,17,0.01
2013-11-14,52,37,27,28,23,16,85,58,34,30.13,30.02,7,2,16,0.00
2013-11-15,61,38,24,30,23,16,87,61,18,30.17,30.08,4,1,11,0.00
2013-11-16,61,40,29,34,27,-100,86,67,29,30.29,30.16,1,0,5,0.01
2013-11-17,46,38,26,43,35,23,92,88,83,30.31,29.85,1,0,3,0.03
2013-11-18,65,54,42,59,46,32,93,75,43,29.83,29.51,8,2,23,0.23
2013-11-19,47,39,31,32,22,15,60,52,40,30.27,29.65,9,6,23,0.01
2013-11-20,41,31,20,18,16,13,82,54,32,30.62,30.27,7,2,16,0.00
2013-11-21,48,30,15,28,19,12,89,67,27,30.64,30.36,4,0,9,0.00
2013-11-22,44,39,32,42,36,26,97,88,78,30.36,29.79,1,0,3,0.21
2013-11-23,43,37,29,41,26,-100,92,66,44,29.91,29.75,9,4,24,0.01
2013-11-24,29,24,19,18,6,-1,81,48,31,30.14,29.76,13,8,33,0.00
2013-11-25,32,24,14,15,2,-7,53,41,20,30.35,30.16,7,3,20,0.00
2013-11-26,37,33,29,30,23,14,90,68,50,30.32,30.06,4,1,12,0.12
2013-11-27,60,46,33,58,44,30,93,91,83,30.06,29.22,7,2,17,2.01
2013-11-28,37,30,20,33,17,6,84,60,34,30.41,29.40,11,6,27,0.15
2013-11-29,32,22,12,17,12,5,88,67,33,30.72,30.41,7,1,15,0.01
2013-11-30,32,20,8,21,12,-100,88,73,49,30.80,30.48,2,0,7,0.00
2013-12-1,35,28,26,33,23,21,92,83,81,30.48,30.01,0,0,2,0.15
2013-12-2,39,36,35,37,34,33,92,92,92,30.01,29.91,1,0,5,0.15
2013-12-3,49,37,27,38,32,23,92,84,58,29.94,29.84,2,1,9,0.00
2013-12-4,42,31,23,30,25,21,91,81,56,30.19,29.94,5,1,12,0.01
2013-12-5,38,34,26,36,32,23,92,91,87,30.21,29.91,1,0,4,0.02
2013-12-6,47,41,33,44,38,31,93,87,66,30.14,29.85,4,0,9,0.17
2013-12-7,37,32,22,33,26,-100,92,83,60,30.42,30.07,6,1,13,0.18
2013-12-8,30,24,17,23,19,14,91,81,63,30.56,30.42,3,0,5,0.01
2013-12-9,35,30,25,33,27,20,92,89,75,30.48,29.88,1,0,4,0.03
2013-12-10,34,30,22,31,26,14,92,86,68,29.96,29.78,5,1,13,0.06
2013-12-11,32,23,16,19,16,13,89,74,53,30.18,29.98,6,2,19,0.01
2013-12-12,24,16,8,18,7,0,90,71,36,30.26,30.04,8,1,18,0.01
2013-12-13,28,18,9,19,10,0,84,71,57,30.39,29.96,7,2,18,0.00
2013-12-14,16,11,7,12,1,-100,86,65,49,30.61,30.17,3,1,9,0.00
2013-12-15,29,21,15,25,18,12,97,88,83,30.17,29.43,3,2,12,0.00
2013-12-16,27,18,5,14,9,0,89,69,41,30.20,29.70,8,3,19,0.00
2013-12-17,15,6,-8,12,2,-12,87,81,58,30.28,29.97,2,0,9,0.00
2013-12-18,34,24,14,22,17,10,88,76,57,30.05,29.88,7,2,16,0.00
2013-12-19,41,30,24,25,22,19,88,74,51,30.09,29.94,5,2,15,0.04
2013-12-20,47,35,27,35,29,23,89,82,60,30.11,29.88,2,0,7,0.03
2013-12-21,54,40,32,44,34,-100,91,83,65,29.93,29.83,1,0,7,0.00
2013-12-22,42,35,32,40,33,30,92,92,91,30.02,29.78,1,0,7,0.07
2013-12-23,34,33,31,32,31,29,92,92,92,30.08,29.96,1,0,5,0.31
2013-12-24,35,31,22,33,22,14,93,71,54,30.18,30.03,5,2,14,0.01
2013-12-25,24,17,10,15,5,0,79,60,43,30.51,30.19,7,2,21,0.00
2013-12-26,25,18,11,22,14,8,88,83,72,30.47,30.06,2,0,5,0.00
2013-12-27,34,21,7,24,15,4,91,78,57,30.24,30.16,5,1,14,0.05
2013-12-28,46,30,17,30,22,-100,90,76,51,30.18,29.95,7,1,19,0.01
2013-12-29,38,32,25,34,29,22,92,88,76,30.00,29.47,4,0,13,0.74
2013-12-30,40,31,15,36,23,5,92,73,48,30.16,29.50,9,3,23,0.59
2013-12-31,22,15,8,12,4,-2,86,64,46,30.16,30.01,3,1,9,0.00
2014-1-1,25,17,9,11,8,5,84,68,45,30.36,30.16,7,2,17,0.00
2014-1-2,17,9,1,13,5,-3,86,81,76,30.35,29.91,5,2,15,0.00